| time (UTC) | temp C | wind direction | speed KPH | gust KPH | rain 1hr cm | rain 24hr cm | rain mn cm | humidity % | barometer mb |
| 20260504174711 | 23 | 0 | 16.1 | 27.4 | 0.00 | 0.00 | 0.00 | 43 | 1002.5 |
| 20260504173710 | 23 | 319 | 16.1 | 29.0 | 0.00 | 0.00 | 0.00 | 44 | 1002.5 |
| 20260504172710 | 23 | 26 | 14.5 | 29.0 | 0.00 | 0.00 | 0.00 | 42 | 1002.5 |
| 20260504171710 | 23 | 314 | 19.3 | 29.0 | 0.00 | 0.00 | 0.00 | 43 | 1002.4 |
| 20260504170710 | 23 | 5 | 12.9 | 27.4 | 0.00 | 0.00 | 0.00 | 41 | 1002.3 |
| 20260504150710 | 21 | 254 | 11.3 | 20.9 | 0.00 | 0.00 | 0.00 | 45 | 1001.6 |
| 20260504140711 | 16 | 263 | 11.3 | 19.3 | 0.00 | 0.00 | 0.00 | 54 | 1002.0 |
| 20260504130710 | 11 | 227 | 3.2 | 4.8 | 0.00 | 0.00 | 0.00 | 69 | 1002.2 |
| 20260504081710 | 10 | 202 | 0.0 | 1.6 | 0.00 | 0.00 | 0.00 | 70 | 1002.5 |
| 20260504050711 | 11 | 168 | 0.0 | 0.0 | 0.00 | 0.00 | 0.00 | 64 | 1005.4 |
| 20260504045710 | 12 | 168 | 0.0 | 1.6 | 0.00 | 0.00 | 0.00 | 61 | 1005.5 |
| 20260504044711 | 12 | 93 | 1.6 | 3.2 | 0.00 | 0.00 | 0.00 | 61 | 1005.6 |
| 20260504042711 | 12 | 82 | 0.0 | 0.0 | 0.00 | 0.00 | 0.00 | 61 | 1005.8 |
| 20260504041711 | 12 | 82 | 0.0 | 0.0 | 0.00 | 0.00 | 0.00 | 59 | 1006.0 |
| 20260504040710 | 13 | 82 | 0.0 | 0.0 | 0.00 | 0.00 | 0.00 | 57 | 1006.0 |
| 20260504035711 | 13 | 82 | 0.0 | 0.0 | 0.00 | 0.00 | 0.00 | 55 | 1005.9 |
| 20260504034711 | 14 | 82 | 0.0 | 1.6 | 0.00 | 0.00 | 0.00 | 54 | 1006.0 |
| 20260504033710 | 15 | 82 | 0.0 | 3.2 | 0.00 | 0.00 | 0.00 | 52 | 1006.0 |
| 20260504032710 | 15 | 81 | 1.6 | 3.2 | 0.00 | 0.00 | 0.00 | 51 | 1006.0 |
| 20260504031710 | 16 | 76 | 1.6 | 4.8 | 0.00 | 0.00 | 0.00 | 50 | 1006.1 |
| 20260504030711 | 16 | 65 | 3.2 | 4.8 | 0.00 | 0.00 | 0.00 | 50 | 1006.1 |
| 20260504025710 | 16 | 195 | 0.0 | 0.0 | 0.00 | 0.00 | 0.00 | 51 | 1006.3 |
| 20260504023710 | 16 | 195 | 0.0 | 3.2 | 0.00 | 0.00 | 0.00 | 48 | 1006.4 |
| 20260504022710 | 16 | 195 | 0.0 | 3.2 | 0.00 | 0.00 | 0.00 | 46 | 1006.4 |
| 20260504021711 | 17 | 195 | 0.0 | 0.0 | 0.00 | 0.00 | 0.00 | 45 | 1006.4 |
| 20260504020711 | 17 | 195 | 0.0 | 3.2 | 0.00 | 0.00 | 0.00 | 45 | 1006.3 |
| 20260504015710 | 18 | 195 | 1.6 | 3.2 | 0.00 | 0.00 | 0.00 | 43 | 1006.5 |
| 20260504014710 | 18 | 195 | 1.6 | 3.2 | 0.00 | 0.00 | 0.00 | 40 | 1006.5 |
| 20260504013710 | 19 | 195 | 1.6 | 3.2 | 0.00 | 0.00 | 0.00 | 38 | 1006.5 |
| 20260504012710 | 19 | 195 | 0.0 | 4.8 | 0.00 | 0.00 | 0.00 | 38 | 1006.7 |
| 20260504011710 | 20 | 202 | 1.6 | 4.8 | 0.00 | 0.00 | 0.00 | 36 | 1006.7 |
| 20260504010711 | 21 | 192 | 3.2 | 4.8 | 0.00 | 0.00 | 0.00 | 34 | 1006.9 |
| 20260504005711 | 21 | 229 | 3.2 | 9.7 | 0.00 | 0.00 | 0.00 | 34 | 1007.1 |
| 20260504004710 | 21 | 205 | 3.2 | 9.7 | 0.00 | 0.00 | 0.00 | 35 | 1007.1 |
| 20260504002710 | 22 | 211 | 4.8 | 8.0 | 0.00 | 0.00 | 0.00 | 32 | 1007.2 |
| 20260504001711 | 22 | 182 | 0.0 | 3.2 | 0.00 | 0.00 | 0.00 | 29 | 1007.3 |
| 20260503235710 | 22 | 306 | 0.0 | 4.8 | 0.00 | 0.00 | 0.00 | 31 | 1007.6 |
| 20260503234711 | 22 | 253 | 1.6 | 4.8 | 0.00 | 0.00 | 0.00 | 30 | 1007.5 |
| 20260503232710 | 23 | 202 | 4.8 | 14.5 | 0.00 | 0.00 | 0.00 | 31 | 1007.7 |
| 20260503231711 | 23 | 265 | 6.4 | 11.3 | 0.00 | 0.00 | 0.00 | 32 | 1007.6 |
| 20260503225710 | 23 | 302 | 4.8 | 8.0 | 0.00 | 0.00 | 0.00 | 36 | 1007.7 |
| 20260503224710 | 23 | 201 | 0.0 | 4.8 | 0.00 | 0.00 | 0.00 | 41 | 1007.8 |
| 20260503222711 | 23 | 0 | 3.2 | 11.3 | 0.00 | 0.00 | 0.00 | 34 | 1007.8 |
| 20260503220711 | 23 | 11 | 4.8 | 16.1 | 0.00 | 0.00 | 0.00 | 32 | 1008.0 |
| 20260503215710 | 23 | 295 | 3.2 | 12.9 | 0.00 | 0.00 | 0.00 | 31 | 1008.3 |
| 20260503213710 | 24 | 304 | 8.0 | 19.3 | 0.00 | 0.00 | 0.00 | 31 | 1008.6 |
| 20260503212711 | 23 | 69 | 3.2 | 4.8 | 0.00 | 0.00 | 0.00 | 32 | 1008.7 |
| 20260503211710 | 23 | 21 | 3.2 | 19.3 | 0.00 | 0.00 | 0.00 | 31 | 1008.8 |
| 20260503203711 | 22 | 334 | 4.8 | 19.3 | 0.00 | 0.00 | 0.00 | 35 | 1009.3 |
| 20260503201710 | 22 | 67 | 3.2 | 11.3 | 0.00 | 0.00 | 0.00 | 30 | 1009.5 |
| 20260503200711 | 22 | 317 | 8.0 | 14.5 | 0.00 | 0.00 | 0.00 | 33 | 1009.7 |
| 20260503195711 | 23 | 288 | 4.8 | 19.3 | 0.00 | 0.00 | 0.00 | 35 | 1009.9 |
| 20260503192710 | 23 | 306 | 9.7 | 20.9 | 0.00 | 0.00 | 0.00 | 34 | 1010.2 |
| 20260503191711 | 22 | 80 | 6.4 | 14.5 | 0.00 | 0.00 | 0.00 | 33 | 1010.2 |
| 20260503190710 | 22 | 53 | 6.4 | 16.1 | 0.00 | 0.00 | 0.00 | 33 | 1010.5 |
| 20260503185710 | 22 | 13 | 8.0 | 16.1 | 0.00 | 0.00 | 0.00 | 33 | 1010.6 |
| 20260503184710 | 22 | 32 | 16.1 | 20.9 | 0.00 | 0.00 | 0.00 | 38 | 1010.7 |
| 20260503183711 | 22 | 292 | 11.3 | 22.5 | 0.00 | 0.00 | 0.00 | 33 | 1010.8 |
| 20260503182710 | 22 | 301 | 11.3 | 19.3 | 0.00 | 0.00 | 0.00 | 32 | 1010.8 |
| 20260503181710 | 22 | 17 | 8.0 | 19.3 | 0.00 | 0.00 | 0.00 | 37 | 1010.9 |
| 20260503180710 | 22 | 57 | 3.2 | 19.3 | 0.00 | 0.00 | 0.00 | 33 | 1011.1 |
| 20260503175711 | 22 | 30 | 11.3 | 20.9 | 0.00 | 0.00 | 0.00 | 35 | 1011.3 |